AirNav   Air Wisconsin pilot careers
 
 972 users online  

C97 Lowell Airport
Lowell, Indiana, USA

GOING TO LOWELL?


FAA INFORMATION EFFECTIVE 13 SEPTEMBER 2018

Location

FAA Identifier: C97
Lat/Long: 41-13-48.5000N / 087-30-27.7000W
41-13.808333N / 087-30.461667W
41.2301389 / -87.5076944
(estimated)
Elevation: 675 ft. / 206 m (estimated)
Variation: 01W (1985)
From city: 5 miles SW of LOWELL, IN
Time zone: UTC -5 (UTC -6 during Standard Time)
Zip code: 46356

Airport Operations

Airport use: Open to the public
Activation date: 08/1980
Control tower: no
ARTCC: CHICAGO CENTER
FSS: TERRE HAUTE FLIGHT SERVICE STATION
NOTAMs facility: HUF (NOTAM-D service available)
Attendance: IREG
Wind indicator: yes
Segmented circle: yes
Landing fee: yes

Airport Communications

CTAF: 122.9
WX AWOS-AV at C56 (12 nm NW): 119.125 (708-534-5256)
WX AWOS-3 at IKK (18 nm SW): 128.475 (815-939-4044)
WX AWOS-3 at IGQ (18 nm N): 119.275 (708-895-9526)
  • APCH/DEP SERVICE PROVIDED BY CHICAGO ARTCC ON FREQS 132.95/272.7 (CHICAGO HEIGHTS RCAG).

Nearby radio navigation aids

VOR radial/distance  VOR name  Freq  Var
EONr099/13.0PEOTONE VORTAC113.2002E
CGTr168/17.0CHICAGO HEIGHTS VORTAC114.2002E
IKKr059/18.1KANKAKEE VOR/DME111.6000E
OXIr262/39.1KNOX VOR/DME115.6000E

 
NDB name  Hdg/Dist  Freq  Var  ID
LA PORTE247/36.935603WIUL .. ..- .-..

Airport Services

Fuel available: 100LL
Parking: hangars and tiedowns
Airframe service: MAJOR
Powerplant service: MAJOR

Runway Information

Runway 18/36

Dimensions: 3041 x 100 ft. / 927 x 30 m
Surface: turf, in good condition
Operational restrictions: THLDS MKD WITH WHITE BARREL HALVES & LGT FIXTURES.
RUNWAY 18  RUNWAY 36
Latitude: 41-14.059050N41-13.558335N
Longitude: 087-30.461438W087-30.460643W
Elevation: 671.8 ft.650.0 ft.
Traffic pattern: rightleft
Runway heading: 181 magnetic, 180 true001 magnetic, 360 true
Displaced threshold: 555 ft.no
Obstructions: 10 ft. crops
APCH SLOPE 11:1 FROM DSPLCD THLD; 65 FT TREE 770 FT & 110 FT R.
10 ft. crops

Airport Ownership and Management from official FAA records

Ownership: Privately-owned
Owner: DONALD E. BAILEY
14705 BELSHAW RD.
LOWELL, IN 46356
Phone (219) 614-6633
Manager: KEVIN BAILEY
14705 BELSHAW RD
LOWELL, IN 46356
Phone (219) 614-6633

Airport Operational Statistics

Aircraft based on the field: 11
Single engine airplanes: 11
    
Aircraft operations: avg 37/week *
95% local general aviation
5% transient general aviation
* for 12-month period ending 31 December 2017

Additional Remarks

SNOW REMOVAL & MOWING WITH LARGE TRACTOR .
DEER ON & INVOF ARPT.
RWY 18/36 SEASONAL CROPS 75 FT E AND 87 FT W OF CNTRLINE.
CALL BEFORE LANDING FOR FUEL AND SERVICES 219-613-4588

Instrument Procedures

There are no published instrument procedures at C97.

Some nearby airports with instrument procedures:

C56 - Bult Field Airport (12 nm NW)
KIKK - Greater Kankakee Airport (18 nm SW)
05C - Griffith-Merrillville Airport (18 nm N)
KIGQ - Lansing Municipal Airport (18 nm N)
3HO - Hobart Sky Ranch Airport (22 nm NE)
 
Loc | Ops | Rwys | IFR | FBO | Links
Com | Nav | Svcs | Stats | Notes


 
Area around C97 (Lowell Airport)
 
Road maps at: MapQuest Bing Google
 
Aerial photo
WARNING: Photo may not be current or correct
Aerial photo of C97 (Lowell Airport)
Photo by Arthur Urban
Photo taken 22-Aug-2015

Do you have a better or more recent aerial photo of Lowell Airport that you would like to share? If so, please send us your photo.

 
Sectional chart

 
Airport distance calculator
Flying to Lowell Airport? Find the distance to fly.

From to C97

Sunrise and sunset
Times for 23-Sep-2018
 Local
(UTC-5)
 Zulu
(UTC)
Morning civil twilight06:1211:12
Sunrise06:3911:39
Sunset18:4523:45
Evening civil twilight19:1300:13

Current date and time
Zulu (UTC)  23-Sep-2018 17:27:13
Local (UTC-5)  23-Sep-2018 12:27:13
 
METAR
KIGQ 
18nm N 
231715Z AUTO 08005KT 10SM CLR 20/10 A3018 RMK AO2 T01970103
KIKK 
18nm SW 
231715Z AUTO 07007KT 10SM CLR 21/10 A3017 RMK AO2 T02110104
KGYY 
24nm N 
231645Z 06009KT 10SM SKC 20/11 A3019
KVPZ 
26nm NE 
231656Z AUTO 10009G16KT 10SM CLR 22/09 A3018 RMK AO2 SLP220 T02220094
4IS3 
34nm N 
SuperAWOS
231655Z AUTO 10SM A3022
KJOT 
34nm NW 
231715Z AUTO 14007KT 10SM CLR 22/12 A3017 RMK AO2 T02150115
KMDW 
35nm N 
231653Z 06008KT 10SM FEW030 20/09 A3018 RMK AO2 SLP216 T02000094
KLOT 
35nm NW 
231715Z AUTO 14004KT 10SM CLR 20/11 A3017 RMK AO2 T02000105
TAF
KGYY 
24nm N 
231441Z 2315/2412 12003KT P6SM SKC FM231600 06010KT P6SM SKC FM240100 11005KT P6SM FEW250
NOTAMs
Click for the latest NOTAMs
NOTAMs are issued by the DoD/FAA and will open in a separate window not controlled by AirNav.

 

 
 

FBO, Fuel Providers, and Aircraft Ground Support

  
 Business Name 
 
 Contact 
 
 Services / Description 
 
Fuel Prices
 
Comments
  
Lowell Aviation 219-696-9603
no information available

If you are affiliated with Lowell Aviation and would like to show here your services, contact info, web link, logo, and more, click here
100LL
RA $4.85 
 Updated 15-Aug-2018
 
   write
RA=Restricted
Update Fuel Prices
 

Would you like to see your business listed on this page?

 If your business provides an interesting product or service to pilots, flight crews, aircraft, or users of the Lowell Airport, you should consider listing it here.  To start the listing process, click on the button below
 
Add a business
 

Other Pages about Lowell Airport

Update a link
 
Copyright © AirNav, LLC. All rights reserved. Privacy Policy  Contact